When you browse on this site, cookies collect data to enhance your experience and personalize the content and advertising you see.
Visit our Privacy Policy to learn more. By continuing to use the site, you agree to this use of cookies and data.
  • In Austria
  • List of Countries
  • For 7 days
  • Water Temperature
  • Weather Map
  • News
  • Weather Widgets
  • user-avatar
    Login

    Hourly Weather Bihać

    Today, 28 May, Thursday

    Time Temperature Precipitation Wind Pressure Humidity
    00:00 +8°C° 0 mm 2 mps 717 mmHg 88%
    01:00 +7°C° 0 mm 2 mps 717 mmHg 88%
    02:00 +7°C° 0 mm 2 mps 716 mmHg 89%
    03:00 +7°C° 0 mm 2 mps 716 mmHg 89%
    04:00 +7°C° 0 mm 2 mps 716 mmHg 90%
    05:00 +9°C° 0 mm 2 mps 716 mmHg 84%
    06:00 +10°C° 0 mm 2 mps 716 mmHg 78%
    07:00 +13°C° 0 mm 2 mps 716 mmHg 72%
    08:00 +14°C° 0 mm 3 mps 716 mmHg 65%
    09:00 +15°C° 0 mm 4 mps 716 mmHg 58%
    10:00 +17°C° 0 mm 4 mps 716 mmHg 52%
    11:00 +18°C° 0 mm 4 mps 716 mmHg 51%
    12:00 +18°C° 0 mm 4 mps 715 mmHg 49%
    13:00 +18°C° 0 mm 4 mps 715 mmHg 48%
    14:00 +18°C° 0.2 mm 4 mps 714 mmHg 54%
    15:00 +17°C° 0.2 mm 4 mps 714 mmHg 59%
    16:00 +17°C° 0.2 mm 4 mps 713 mmHg 64%
    17:00 +16°C° 0.1 mm 3 mps 713 mmHg 70%
    18:00 +15°C° 0.1 mm 2 mps 713 mmHg 76%
    19:00 +14°C° 0.1 mm 2 mps 713 mmHg 82%
    20:00 +13°C° 0.3 mm 2 mps 713 mmHg 85%
    21:00 +11°C° 0.3 mm 3 mps 713 mmHg 88%
    22:00 +10°C° 0.3 mm 3 mps 713 mmHg 91%
    23:00 +10°C° 0.2 mm 3 mps 713 mmHg 91%

    Tomorrow, 29 May, Friday

    Time Temperature Precipitation Wind Pressure Humidity
    00:00 +10°C° 0.2 mm 3 mps 713 mmHg 91%
    01:00 +9°C° 0.2 mm 3 mps 713 mmHg 91%
    02:00 +9°C° 0 mm 3 mps 713 mmHg 91%
    03:00 +8°C° 0 mm 3 mps 713 mmHg 91%
    04:00 +7°C° 0 mm 3 mps 712 mmHg 91%
    05:00 +8°C° 0 mm 3 mps 713 mmHg 88%
    06:00 +9°C° 0 mm 3 mps 713 mmHg 85%
    07:00 +10°C° 0 mm 3 mps 713 mmHg 82%
    08:00 +11°C° 0 mm 3 mps 713 mmHg 76%
    09:00 +12°C° 0 mm 3 mps 713 mmHg 70%
    10:00 +14°C° 0 mm 3 mps 714 mmHg 64%
    11:00 +14°C° 0 mm 3 mps 713 mmHg 63%
    12:00 +14°C° 0 mm 3 mps 713 mmHg 62%
    13:00 +16°C° 0 mm 3 mps 713 mmHg 62%
    14:00 +16°C° 0 mm 3 mps 712 mmHg 61%
    15:00 +16°C° 0 mm 3 mps 712 mmHg 60%
    16:00 +16°C° 0 mm 3 mps 712 mmHg 60%
    17:00 +15°C° 0 mm 2 mps 711 mmHg 67%
    18:00 +14°C° 0 mm 2 mps 711 mmHg 74%
    19:00 +13°C° 0 mm 2 mps 711 mmHg 81%
    20:00 +12°C° 0 mm 2 mps 711 mmHg 83%
    21:00 +10°C° 0 mm 2 mps 711 mmHg 86%
    22:00 +10°C° 0 mm 2 mps 711 mmHg 88%
    23:00 +10°C° 0 mm 2 mps 711 mmHg 89%

    Day after tomorrow, 30 May, Saturday

    Time Temperature Precipitation Wind Pressure Humidity
    00:00 +10°C° 0 mm 2 mps 711 mmHg 90%
    01:00 +10°C° 0 mm 2 mps 711 mmHg 91%
    02:00 +9°C° 0 mm 2 mps 711 mmHg 91%
    03:00 +9°C° 0 mm 2 mps 710 mmHg 91%
    04:00 +9°C° 0 mm 2 mps 710 mmHg 92%
    05:00 +9°C° 0 mm 2 mps 710 mmHg 90%
    06:00 +10°C° 0 mm 2 mps 710 mmHg 88%
    07:00 +10°C° 0 mm 2 mps 710 mmHg 87%
    08:00 +10°C° 0.2 mm 2 mps 710 mmHg 85%
    09:00 +10°C° 0.2 mm 3 mps 710 mmHg 84%
    10:00 +10°C° 0.2 mm 3 mps 710 mmHg 82%
    11:00 +12°C° 0.1 mm 2 mps 710 mmHg 80%
    12:00 +12°C° 0.1 mm 2 mps 710 mmHg 79%
    13:00 +13°C° 0.1 mm 2 mps 710 mmHg 77%
    14:00 +13°C° 0 mm 2 mps 710 mmHg 73%
    15:00 +14°C° 0 mm 2 mps 710 mmHg 68%
    16:00 +15°C° 0 mm 2 mps 710 mmHg 64%
    17:00 +14°C° 0 mm 2 mps 710 mmHg 70%
    18:00 +13°C° 0 mm 2 mps 710 mmHg 76%
    19:00 +12°C° 0 mm 2 mps 710 mmHg 81%
    20:00 +10°C° 0 mm 2 mps 710 mmHg 85%
    21:00 +9°C° 0 mm 2 mps 710 mmHg 88%
    22:00 +8°C° 0 mm 2 mps 710 mmHg 91%
    23:00 +8°C° 0 mm 2 mps 710 mmHg 91%

    31 May, Sunday

    Time Temperature Precipitation Wind Pressure Humidity
    00:00 +7°C° 0 mm 2 mps 710 mmHg 91%
    01:00 +7°C° 0 mm 2 mps 710 mmHg 91%
    02:00 +7°C° 0 mm 2 mps 710 mmHg 91%
    03:00 +6°C° 0 mm 2 mps 710 mmHg 90%
    04:00 +6°C° 0 mm 2 mps 709 mmHg 89%
    05:00 +7°C° 0 mm 2 mps 710 mmHg 83%
    06:00 +9°C° 0 mm 2 mps 710 mmHg 78%
    07:00 +12°C° 0 mm 2 mps 710 mmHg 72%
    08:00 +14°C° 0 mm 2 mps 710 mmHg 63%
    09:00 +15°C° 0 mm 1 mps 711 mmHg 55%
    10:00 +18°C° 0 mm 1 mps 711 mmHg 47%
    11:00 +19°C° 0 mm 1 mps 711 mmHg 47%
    12:00 +18°C° 0 mm 2 mps 711 mmHg 46%
    13:00 +19°C° 0 mm 2 mps 710 mmHg 46%
    14:00 +18°C° 0 mm 2 mps 710 mmHg 50%
    15:00 +18°C° 0 mm 3 mps 710 mmHg 53%
    16:00 +17°C° 0 mm 3 mps 709 mmHg 57%
    17:00 +16°C° 0 mm 2 mps 709 mmHg 62%
    18:00 +15°C° 0 mm 2 mps 709 mmHg 67%
    19:00 +13°C° 0 mm 2 mps 709 mmHg 71%
    20:00 +12°C° 0 mm 2 mps 709 mmHg 73%
    21:00 +11°C° 0 mm 1 mps 709 mmHg 74%
    22:00 +10°C° 0 mm 1 mps 709 mmHg 75%
    23:00 +9°C° 0 mm 1 mps 709 mmHg 76%

    1 June, Monday

    Time Temperature Precipitation Wind Pressure Humidity
    00:00 +9°C° 0 mm 1 mps 709 mmHg 76%
    01:00 +9°C° 0 mm 1 mps 709 mmHg 76%
    02:00 +9°C° 0 mm 1 mps 709 mmHg 76%
    03:00 +9°C° 0 mm 1 mps 708 mmHg 75%
    04:00 +9°C° 0 mm 1 mps 708 mmHg 74%
    05:00 +10°C° 0 mm 1 mps 708 mmHg 75%
    06:00 +11°C° 0 mm 1 mps 708 mmHg 77%
    07:00 +12°C° 0 mm 1 mps 709 mmHg 78%
    08:00 +12°C° 0.2 mm 1 mps 709 mmHg 78%
    09:00 +13°C° 0.2 mm 2 mps 709 mmHg 79%
    10:00 +14°C° 0.2 mm 2 mps 709 mmHg 80%
    11:00 +14°C° 0.3 mm 2 mps 709 mmHg 82%
    12:00 +14°C° 0.3 mm 2 mps 709 mmHg 84%
    13:00 +14°C° 0.3 mm 2 mps 708 mmHg 86%
    14:00 +15°C° 0.1 mm 2 mps 708 mmHg 81%
    15:00 +17°C° 0.1 mm 2 mps 708 mmHg 75%
    16:00 +18°C° 0.1 mm 2 mps 708 mmHg 70%
    17:00 +17°C° 0.2 mm 2 mps 708 mmHg 76%
    18:00 +16°C° 0.2 mm 2 mps 707 mmHg 82%
    19:00 +15°C° 0.2 mm 2 mps 707 mmHg 89%
    20:00 +14°C° 0 mm 2 mps 707 mmHg 90%
    21:00 +13°C° 0 mm 2 mps 707 mmHg 91%
    22:00 +13°C° 0 mm 2 mps 707 mmHg 92%
    23:00 +13°C° 0.1 mm 2 mps 707 mmHg 93%

    2 June, Tuesday

    Time Temperature Precipitation Wind Pressure Humidity
    00:00 +12°C° 0.1 mm 3 mps 707 mmHg 93%
    01:00 +12°C° 0.1 mm 3 mps 707 mmHg 93%
    02:00 +12°C° 0.1 mm 3 mps 707 mmHg 94%
    03:00 +11°C° 0.1 mm 3 mps 706 mmHg 94%
    04:00 +11°C° 0.1 mm 3 mps 706 mmHg 95%
    05:00 +12°C° 0 mm 3 mps 706 mmHg 92%
    06:00 +12°C° 0 mm 3 mps 707 mmHg 90%
    07:00 +13°C° 0 mm 3 mps 707 mmHg 87%
    08:00 +14°C° 0.1 mm 3 mps 707 mmHg 80%
    09:00 +17°C° 0.1 mm 3 mps 707 mmHg 72%
    10:00 +18°C° 0.1 mm 3 mps 708 mmHg 65%
    11:00 +19°C° 0.1 mm 3 mps 708 mmHg 64%
    12:00 +19°C° 0.1 mm 3 mps 707 mmHg 62%
    13:00 +20°C° 0.1 mm 3 mps 707 mmHg 61%
    14:00 +20°C° 0.2 mm 3 mps 707 mmHg 61%
    15:00 +20°C° 0.2 mm 3 mps 707 mmHg 61%
    16:00 +19°C° 0.2 mm 3 mps 706 mmHg 62%
    17:00 +18°C° 0.1 mm 2 mps 706 mmHg 68%
    18:00 +17°C° 0.1 mm 2 mps 706 mmHg 75%
    19:00 +15°C° 0.1 mm 1 mps 706 mmHg 81%
    20:00 +14°C° 0 mm 1 mps 706 mmHg 84%
    21:00 +13°C° 0 mm 1 mps 706 mmHg 86%
    22:00 +12°C° 0 mm 2 mps 706 mmHg 88%
    23:00 +12°C° 0 mm 2 mps 705 mmHg 89%
    Show more